Regional Weather Roundup
Issued by NWS

Home | Current Version | Previous Version | Graphics & Text | Print | Product List | Glossary On
Versions: 1 2 3 4 5 6 7 8 9 10 11 12 13 14 15 16 17 18 19 20 21 22 23 24 25 26 27 28 29 30 31 32 33 34 35 36 37 38 39 40 41 42 43 44 45 46 47 48 49 50
000
ASUS45 KBOU 201407
RWRCO

WEATHER ROUNDUP FOR COLORADO
NATIONAL WEATHER SERVICE DENVER/BOULDER CO
800 AM MDT MON OCT 20 2014

NOTE: "FAIR" INDICATES FEW OR NO CLOUDS BELOW 12000 FEET WITH NO
SIGNIFICANT WEATHER AND/OR OBSTRUCTIONS TO VISIBILITY.

COZ001>005-013-030-031-201500-
...NORTHWEST COLORADO...

CITY           SKY/WX    TMP DP  RH WIND       PRES   REMARKS
CRAIG          PTCLDY    29  26  89 CALM      30.22R
HAYDEN         CLEAR     39  28  65 SE12      30.22S
MEEKER         PTCLDY    36  32  85 NE5       30.22R
MOUNT WERNER   NOT AVBL
STEAMBOAT SPGS CLEAR     33  29  85 CALM      30.24S
WALDEN         CLEAR     28  23  80 SE3       30.30R
$$

COZ006>008-011-201500-
...WEST CENTRAL VALLEYS...

CITY           SKY/WX    TMP DP  RH WIND       PRES   REMARKS
GRAND JUNCTION CLEAR     44  33  65 CALM      30.15R
MONTROSE       CLEAR     42  37  82 SE6       30.23R
EAGLE          PTCLDY    34  30  86 CALM      30.30R
RIFLE          CLEAR     39  34  82 SW3       30.21R
DELTA          CLEAR     47  38  71 CALM      30.20R
NUCLA          CLEAR     43  36  75 SE5       30.25R
$$

COZ017>023-064>068-201500-
...SOUTHWEST COLORADO...

CITY           SKY/WX    TMP DP  RH WIND       PRES   REMARKS
DURANGO        CLEAR     38  37  97 CALM      30.25R
CORTEZ         CLOUDY    38  36  92 E6        30.22R
PAGOSA SPRINGS CLOUDY    39  39 100 CALM      30.30R
TELLURIDE      PTCLDY    40  33  77 SE5       30.35S
WOLF CREEK PAS   N/A     34  28  80 S3        30.48R
$$

COZ009-010-012-014-032>034-037-058>063-201500-
...CENTRAL COLORADO...

CITY           SKY/WX    TMP DP  RH WIND       PRES   REMARKS
ASPEN          PTCLDY    36  31  82 CALM      30.29R
BUENA VISTA    PTCLDY    36  32  85 CALM      30.35S
COPPER MTN     CLEAR     41  27  56 S13       30.49R
BERTHOUD PASS  FAIR      32  30  93 MISG      30.52R
COTTONWOOD PAS PTCLDY    45  30  57 CALM      30.40S
GUNNISON       CLOUDY    32  27  80 CALM      30.37R
KREMMLING      CLEAR     30  27  86 CALM        N/A
LEADVILLE      PTCLDY    32  28  85 CALM      30.40R
MONARCH PASS   MOCLDY    36  30  80 S5        30.59S
SALIDA         MOCLDY    42  34  74 NW5       30.41R
SUNLIGHT       CLEAR     41  32  70 CALM      30.44R
WILKERSON PASS NOT AVBL
$$

COZ069>075-201500-
...SAN LUIS VALLEY/SANGRE DE CRISTO MOUNTAINS...

CITY           SKY/WX    TMP DP  RH WIND       PRES   REMARKS
ALAMOSA        CLOUDY    38  33  82 CALM      30.31R
LA VETA PASS   MOCLDY    45  30  57 NE7       30.41S
SAGUACHE       CLOUDY    41  34  75 NW14      30.33R
$$

COZ035-036-038>040-201500-
...NORTHERN COLORADO FRONT RANGE...

CITY           SKY/WX    TMP DP  RH WIND       PRES   REMARKS
DENVER INTL AP CLEAR     50  36  58 SW14      30.17R
DMNS CITY PARK   N/A     49  35  58 S5G10     30.17S
AURORA         CLEAR     48  37  65 S7        30.19R
FRONT RANGE AP CLEAR     50  39  66 SW3       30.18R
ERIE MUNI ARPT CLEAR     40  36  84 CALM      30.16R
BOULDER MUN AP CLEAR     45  36  70 CALM      30.16S
CENTENNIAL     CLEAR     47  36  65 S3        30.19R
BROOMFIELD     CLEAR     50  34  53 CALM      30.18S
FORT COLLINS   CLEAR     45  36  70 CALM      30.17R
LONGMONT       CLEAR     40  34  77 CALM      30.18R
$$

COZ041-046-047-076>085-087-088-201500-
...PIKES PEAK/PALMER DIVIDE AND SOUTHERN FOOTHILLS...

CITY           SKY/WX    TMP DP  RH WIND       PRES   REMARKS
COLO. SPRINGS  PTCLDY    44  37  76 N7        30.25R
A. F. ACADEMY  CLEAR     37  33  85 N10       30.26R
ELLICOTT       NOT AVBL
FALCON         CLEAR     44  38  78 W6        30.28R
FORT CARSON    CLEAR     44  36  72 NW8       30.23R
LIMON          CLEAR     39  36  89 N6        30.21R
MONUMENT HILL  CLEAR     43  36  75 S9        30.25R
TRINIDAD       CLEAR     45  35  68 W13       30.23R
$$

COZ042>045-048>051-090-091-201500-
...NORTHEAST COLORADO...

CITY           SKY/WX    TMP DP  RH WIND       PRES   REMARKS
GREELEY ARPT   CLEAR     37  28  70 CALM      30.17R
AKRON          CLEAR     51  38  60 S9        30.16R
BURLINGTON     CLEAR     44  39  82 W7        30.17R
WRAY           CLEAR     40  37  87 SW7       30.15R
STERLING       CLEAR     37  37 100 SW5       30.15R
HOLYOKE        CLEAR     41  36  81 CALM      30.14S
FORT MORGAN    CLEAR     42  37  79 W6        30.16S
$$

COZ086-089-092>099-201500-
...SOUTHEAST COLORADO...

CITY           SKY/WX    TMP DP  RH WIND       PRES   REMARKS
PUEBLO         CLEAR     45  37  73 CALM      30.20R
LA JUNTA       CLEAR     47  40  76 S6        30.19R
LAMAR          CLEAR     42  41  96 SW7       30.17R
SPRINGFIELD      N/A     46  43  89 W3        30.19R
$$


USA.gov is the U.S. government's official web portal to all federal, state and local government web resources and services.